Weather History for Blacksburg, VA

Change the Weather History Date:

Wednesday, July 17, 2013

  Actual Average Record
Temperature  
Mean Temperature 77 °F 71 °F  
Max Temperature 87 °F 82 °F 96 °F (1980)
Min Temperature 66 °F 60 °F 45 °F (1970)
Degree Days  
Heating Degree Days 0 0  
Month to date heating degree days 0 0  
Since 1 June heating degree days 7 38  
Since 1 July heating degree days 0 0  
Cooling Degree Days 12 6  
Month to date cooling degree days 133 108  
Year to date cooling degree days 280 256  
Since 1 June cooling degree days 249 227  
Growing Degree Days 28 (Base 50)    
Moisture  
Dew Point 71 °F    
Average Humidity 83    
Maximum Humidity 100    
Minimum Humidity 65    
Precipitation  
Precipitation T in 0.15 in 1.38 in (2009)
Month to date precipitation 5.62 2.33  
Year to date precipitation 35.43 23.67  
Snow  
Snow 0.00 in - - ()
Month to date snowfall 0.0  
Since 1 June snowfall T  
Since 1 July snowfall 0.0  
Snow Depth 0.00 in    
Sea Level Pressure  
Sea Level Pressure 30.34 in    
Wind  
Wind Speed 2 mph (NNW)    
Max Wind Speed 8 mph    
Max Gust Speed -    
Visibility 8 miles    
Events Thunderstorm    
T = Trace of Precipitation, MM = Missing Value Source: NWS Daily Summary

Daily Weather History Graph

Daily Weather History Graph

Search for Another Location

Airport:

Trip Planner

Search our weather history database for the weather conditions in past years. The results will help you decide how hot, cold, wet, or windy it might be!

Date:

Astronomy

Jul. 17, 2013 Rise Set
Actual Time 6:14 AM EDT 8:40 PM EDT
Civil Twilight 5:44 AM EDT 9:10 PM EDT
Nautical Twilight 5:07 AM EDT 9:47 PM EDT
Astronomical Twilight 4:26 AM EDT 10:27 PM EDT
Moon 3:29 PM EDT 1:18 AM EDT
Length of Visible Light 15h 25m
Length of Day
14h 25m
Waxing Gibbous, 67% of the Moon is Illuminated
Jul 17
Waxing Gibbous
Jul 22
Full
Jul 29
Last Quarter
Aug 6
New
Aug 14
First Quarter

Hourly Weather History & Observations

Time (EDT) Temp. Heat Index Dew Point Humidity Pressure Visibility Wind Dir Wind Speed Gust Speed Precip Events Conditions
12:15 AM 68.0 °F - 68.0 °F 100% 30.38 in 10.0 mi Calm Calm - N/A   Clear
12:35 AM 68.0 °F - 68.0 °F 100% 30.37 in 10.0 mi Calm Calm - N/A   Clear
12:55 AM 68.0 °F - 68.0 °F 100% 30.37 in 10.0 mi Calm Calm - N/A   Clear
1:15 AM 68.0 °F - 68.0 °F 100% 30.36 in 10.0 mi Calm Calm - N/A   Clear
1:35 AM 68.0 °F - 68.0 °F 100% 30.36 in 7.0 mi Calm Calm - N/A   Clear
1:55 AM 68.0 °F - 68.0 °F 100% 30.36 in 7.0 mi Calm Calm - N/A   Clear
2:15 AM 68.0 °F - 68.0 °F 100% 30.36 in 7.0 mi Calm Calm - N/A   Scattered Clouds
2:35 AM 68.0 °F - 68.0 °F 100% 30.36 in 7.0 mi Calm Calm - N/A   Scattered Clouds
2:55 AM 69.8 °F - 69.8 °F 100% 30.36 in 7.0 mi Calm Calm - N/A   Mostly Cloudy
3:15 AM 68.0 °F - 68.0 °F 100% 30.36 in 7.0 mi Calm Calm - N/A   Scattered Clouds
3:35 AM 69.8 °F - 69.8 °F 100% 30.36 in 7.0 mi Calm Calm - N/A   Scattered Clouds
3:55 AM 68.0 °F - 68.0 °F 100% 30.36 in 4.0 mi Calm Calm - N/A   Clear
4:15 AM 68.0 °F - 68.0 °F 100% 30.37 in 5.0 mi Calm Calm - N/A   Clear
4:35 AM 68.0 °F - 68.0 °F 100% 30.36 in 5.0 mi Calm Calm - N/A   Clear
4:55 AM 68.0 °F - 68.0 °F 100% 30.36 in 4.0 mi Calm Calm - N/A   Clear
5:15 AM 68.0 °F - 68.0 °F 100% 30.36 in 4.0 mi NNW 3.5 mph - N/A   Clear
5:35 AM 68.0 °F - 68.0 °F 100% 30.37 in 4.0 mi Calm Calm - N/A   Clear
5:55 AM 68.0 °F - 68.0 °F 100% 30.37 in 3.0 mi Calm Calm - N/A   Clear
6:15 AM 68.0 °F - 68.0 °F 100% 30.38 in 3.0 mi Calm Calm - N/A   Clear
6:35 AM 68.0 °F - 68.0 °F 100% 30.38 in 3.0 mi Calm Calm - N/A   Clear
6:55 AM 69.8 °F - 69.8 °F 100% 30.38 in 4.0 mi Calm Calm - N/A   Clear
7:15 AM 71.6 °F - 71.6 °F 100% 30.38 in 5.0 mi Calm Calm - N/A   Clear
7:35 AM 73.4 °F - 73.4 °F 100% 30.38 in 7.0 mi Calm Calm - N/A   Scattered Clouds
7:55 AM 73.4 °F - 73.4 °F 100% 30.38 in 7.0 mi Calm Calm - N/A   Clear
8:15 AM 75.2 °F - 73.4 °F 94% 30.39 in 7.0 mi Calm Calm - N/A   Clear
8:35 AM 75.2 °F - 73.4 °F 94% 30.39 in 7.0 mi Calm Calm - N/A   Clear
8:55 AM 77.0 °F - 73.4 °F 89% 30.39 in 7.0 mi Calm Calm - N/A   Clear
9:15 AM 78.8 °F - 73.4 °F 83% 30.39 in 10.0 mi WNW 3.5 mph - N/A   Clear
9:35 AM 80.6 °F 85.4 °F 73.4 °F 79% 30.39 in 10.0 mi NW 4.6 mph - N/A   Clear
9:55 AM 80.6 °F 85.4 °F 73.4 °F 79% 30.39 in 10.0 mi North 3.5 mph - N/A   Clear
10:15 AM 82.4 °F 89.5 °F 75.2 °F 79% 30.39 in 10.0 mi Calm Calm - N/A   Clear
10:35 AM 82.4 °F 88.2 °F 73.4 °F 74% 30.38 in 10.0 mi NW 6.9 mph - N/A   Clear
10:55 AM 82.4 °F 87.2 °F 71.6 °F 70% 30.38 in 10.0 mi NNE 8.1 mph - N/A   Clear
11:15 AM 82.4 °F 87.2 °F 71.6 °F 70% 30.38 in 10.0 mi North 4.6 mph - N/A   Clear
11:35 AM 82.4 °F 88.2 °F 73.4 °F 74% 30.38 in 10.0 mi North 5.8 mph - N/A   Clear
11:55 AM 82.4 °F 87.2 °F 71.6 °F 70% 30.38 in 10.0 mi NNW 5.8 mph - N/A   Scattered Clouds
12:15 PM 84.2 °F 90.9 °F 73.4 °F 70% 30.37 in 10.0 mi Calm Calm - N/A   Scattered Clouds
12:35 PM 84.2 °F 90.9 °F 73.4 °F 70% 30.37 in 10.0 mi NW 4.6 mph - N/A   Mostly Cloudy
12:55 PM 84.2 °F 90.9 °F 73.4 °F 70% 30.36 in 10.0 mi North 8.1 mph - N/A   Scattered Clouds
1:15 PM 86.0 °F 93.4 °F 73.4 °F 66% 30.35 in 10.0 mi East 4.6 mph - N/A   Scattered Clouds
1:35 PM 86.0 °F 93.4 °F 73.4 °F 66% 30.35 in 10.0 mi NNW 4.6 mph - N/A   Scattered Clouds
1:55 PM 84.2 °F 90.9 °F 73.4 °F 70% 30.34 in 10.0 mi NNE 4.6 mph - N/A   Mostly Cloudy
2:15 PM 86.0 °F 93.4 °F 73.4 °F 66% 30.32 in 10.0 mi Calm Calm - N/A   Mostly Cloudy
2:35 PM 84.2 °F 90.9 °F 73.4 °F 70% 30.32 in 10.0 mi ENE 4.6 mph - N/A   Mostly Cloudy
2:55 PM 84.2 °F 90.9 °F 73.4 °F 70% 30.31 in 10.0 mi NNE 4.6 mph - N/A   Mostly Cloudy
3:15 PM 86.0 °F 93.4 °F 73.4 °F 66% 30.31 in 10.0 mi East 4.6 mph - N/A Thunderstorm Scattered Clouds
3:35 PM 87.8 °F 95.6 °F 73.4 °F 62% 30.30 in 10.0 mi NE 3.5 mph - N/A Thunderstorm Thunderstorm
3:55 PM 86.0 °F 93.4 °F 73.4 °F 66% 30.29 in 10.0 mi East 5.8 mph - N/A Thunderstorm Thunderstorm
4:15 PM 84.2 °F 89.6 °F 71.6 °F 66% 30.30 in 10.0 mi NW 11.5 mph - N/A Thunderstorm Thunderstorm
4:35 PM 78.8 °F - 69.8 °F 74% 30.29 in 10.0 mi WNW 4.6 mph - N/A   Scattered Clouds
4:55 PM 75.2 °F - 69.8 °F 83% 30.29 in 10.0 mi Calm Calm - N/A Thunderstorm Thunderstorm
5:15 PM 75.2 °F - 71.6 °F 89% 30.28 in 10.0 mi WNW 5.8 mph - N/A   Clear
5:35 PM 75.2 °F - 71.6 °F 89% 30.28 in 10.0 mi SSE 5.8 mph - N/A   Mostly Cloudy
5:55 PM 73.4 °F - 71.6 °F 94% 30.29 in 7.0 mi SW 3.5 mph - N/A Thunderstorm Mostly Cloudy
6:15 PM 75.2 °F - 73.4 °F 94% 30.29 in 10.0 mi WNW 3.5 mph - N/A   Scattered Clouds
6:35 PM 75.2 °F - 71.6 °F 89% 30.28 in 10.0 mi NW 4.6 mph - N/A   Scattered Clouds
6:55 PM 75.2 °F - 71.6 °F 89% 30.29 in 10.0 mi Calm Calm - N/A   Clear
7:15 PM 75.2 °F - 71.6 °F 89% 30.30 in 10.0 mi Calm Calm - N/A   Scattered Clouds
7:35 PM 75.2 °F - 73.4 °F 94% 30.30 in 10.0 mi Calm Calm - N/A Thunderstorm Clear
7:55 PM 73.4 °F - 73.4 °F 100% 30.30 in 10.0 mi WNW 3.5 mph - N/A Thunderstorm Clear
8:15 PM 73.4 °F - 71.6 °F 94% 30.30 in 10.0 mi Calm Calm - N/A Thunderstorm Scattered Clouds
8:35 PM 73.4 °F - 71.6 °F 94% 30.30 in 10.0 mi Calm Calm - N/A Thunderstorm Thunderstorm
8:55 PM 71.6 °F - 71.6 °F 100% 30.33 in 10.0 mi Calm Calm - N/A   Scattered Clouds
9:15 PM 71.6 °F - 71.6 °F 100% 30.32 in 10.0 mi Calm Calm - N/A Thunderstorm Mostly Cloudy
9:35 PM 71.6 °F - 71.6 °F 100% 30.30 in 7.0 mi Calm Calm - N/A Thunderstorm Scattered Clouds
9:55 PM 71.6 °F - 71.6 °F 100% 30.31 in 7.0 mi NW 3.5 mph - N/A   Clear
10:15 PM 71.6 °F - 71.6 °F 100% 30.31 in 7.0 mi Calm Calm - N/A Thunderstorm Clear
10:35 PM 71.6 °F - 71.6 °F 100% 30.31 in 7.0 mi Calm Calm - N/A   Clear
10:55 PM 71.6 °F - 71.6 °F 100% 30.31 in 7.0 mi Calm Calm - N/A   Clear
11:15 PM 69.8 °F - 69.8 °F 100% 30.31 in 5.0 mi NW 3.5 mph - N/A   Clear
11:35 PM 71.6 °F - 71.6 °F 100% 30.31 in 5.0 mi Calm Calm - N/A   Clear
11:55 PM 69.8 °F - 69.8 °F 100% 30.31 in 5.0 mi Calm Calm - N/A   Clear